Погода в Коржовке-Голубовке

Россия / Брянская область     52°45′54″N   32°20′58″E
темп.,
°C
ветер,
м/с
пор.,
м/с
влажн.,
%
обл.,
%
осадки,
мм/ч
давл.,
гПа
погр.,
м
10 мая, пн
пн1000:00+4ссз33685 0.0 102535
03:00+3ссз22695 0.0 102712
06:00+3с22695 0.0 102717
09:00+10с23571 0.0 1028373
12:00+13с33450 0.0 10271379
15:00+15ссв34420 0.0 10261613
18:00+15ссв35550 0.0 10241426
21:00+9св33690 0.0 102621
11 мая, вт
вт1100:00+7св36750 0.0 102677
03:00+5св47760 0.0 1026110
06:00+5ссв410784 0.0 1025195
09:00+11св58661 0.0 1024422
12:00+17св57605 0.0 1023713
15:00+19св68574 0.0 10211093
18:00+19всв596918 0.0 10211168
21:00+13вюв410939 0.2 1022275
12 мая, ср
ср1200:00+8вюв5119143 0.0 1023317
03:00+6в511950 0.0 1024368
06:00+5вюв39935 0.0 1024295
09:00+11вюв577390 0.0 1024634
12:00+14в5661100 0.0 10211540
15:00+12всв5675100 0.8 1019719
18:00+9юз2392100 3.8 1016268
21:00+7ююв6895100 17.1 1014540
13 мая, чт
чт1300:00+7ююв51095100 5.6 1014598
03:00+8вюв5997100 6.3 1014403
06:00+6юв4997100 0.1 1014264
09:00+9юв5890100 0.1 1014495
12:00+12ююв7872100 0.0 10141208
15:00+13ююв5972100 0.1 10141420
18:00+15юв5868100 0.0 1013876
21:00+10юв47864 0.0 1014106
14 мая, пт
пт1400:00+8юв47901 0.0 1014114
03:00+8вюв489199 0.0 1013117
06:00+9вюв499392 0.0 1013154
09:00+12в5991100 0.1 1011211
12:00+18юв797464 0.3 1010890
15:00+20ююв686621 1.7 10091506
18:00+19ю477561 1.4 1009892
21:00+15ю4691100 1.6 101091